Littleport, Iowa
Current Conditions -  °F | °C
As of 3:35 AM on Sunday 26 Oct 2014 (Local Time) from KPDC Reporting Station
Clear Clear  
Wind Chill: 37°   Ceiling: Unl
Heat Index: 37°   Visibility: 10mi
Dew Point: 32°   Wind: 0mph
Humidity: 83%   Direction: NA
Pressure: 30.05"   Gusts: NA
Location:  42.75°N, 91.37°W
Report Text: KPDC 260835Z AUTO 00000KT 10SM CLR 03/00 A3005 RMK AO2 T00260000
Loading
Personal Weather Stations






























Interactive Weather Map
Tropical Storm Tracking
New forecast layout! Learn more

10-Day Weather Forecast

Advertisements
Track Severe Weather on mobile